Home   Weather   Hofuf   Past weeks
Flag for Saudi Arabia

Past Weather in Hofuf, Saudi Arabia — Yesterday and Last 2 Weeks

Now
55 °F

Clear.


Feels Like: 53 °F
Forecast: 66 / 42 °F
Wind: 8 mph from Northwest

Location: Al Ahsa

Current Time: Jan 20, 2019 at 6:53:25 pm

Latest Report: Jan 20, 2019 at 6:00 pm


Visibility: 10 mi

Pressure: 30.18 "Hg

Humidity: 38%

Dew Point: 30 °F

Location of HofufLocation

Past Weather in Hofuf — Graph

°F

Hofuf Temperature Yesterday

Maximum temperature yesterday: 63 °F (at 1:00 pm)
Minimum temperature yesterday: 45 °F (at 11:00 pm)
Average temperature yesterday: 54 °F

High & Low Weather Summary for the Past Weeks

 TemperatureHumidityPressure
High84 °F (Jan 7, 2:00 pm)100% (Jan 9, 1:00 am)30.27 "Hg (Jan 9, 1:00 am)
Low43 °F (Jan 20, 3:00 am)15% (Jan 20, 4:00 pm)29.83 "Hg (Jan 17, 4:00 am)
Average62 °F42%30.07 "Hg
* Reported Jan 5 5:00 pm — Jan 20 5:00 pm, Hofuf. Weather by CustomWeather, © 2019

Note: Actual official high and low records may vary slightly from our data, if they occured in-between our weather recording intervals... More about our weather records

Advertising

Hofuf Weather History for the Previous 24 Hours

Scroll right to see more
 ConditionsComfort  
Time TempWeatherWind HumidityBarometerVisibility
5:00 pm
Sun, Jan 20
59 °FSunny.13 mph17%30.15 "Hg10 mi
4:00 pm61 °FSunny.15 mph15%30.15 "Hg10 mi
3:00 pm63 °FSunny.17 mph16%30.15 "Hg10 mi
2:00 pm61 °FSunny.13 mph20%30.15 "Hg10 mi
1:00 pm61 °FSunny.16 mph22%30.18 "Hg10 mi
12:00 pm61 °FSunny.17 mph23%30.21 "Hg10 mi
11:00 am57 °FSunny.17 mph29%30.24 "Hg10 mi
10:00 am55 °FSunny.16 mph31%30.27 "Hg10 mi
9:00 am52 °FSunny.9 mph35%30.27 "Hg10 mi
8:00 am46 °FClear.10 mph46%30.27 "Hg5 mi
7:00 am43 °FSunny.10 mph57%30.24 "Hg10 mi
6:00 am43 °FClear.9 mph53%30.24 "Hg10 mi
5:00 am43 °FClear.8 mph49%30.21 "Hg10 mi
4:00 am43 °FClear.6 mph46%30.21 "Hg10 mi
3:00 am43 °FClear.7 mph46%30.21 "Hg10 mi
2:00 am45 °FClear.7 mph42%30.21 "Hg10 mi
1:00 am45 °FClear.5 mph42%30.21 "Hg10 mi
12:00 am45 °FClear.5 mph42%30.18 "Hg10 mi
11:00 pm
Sat, Jan 19
45 °FClear.6 mph42%30.21 "Hg10 mi
10:00 pm46 °FClear.8 mph37%30.21 "Hg10 mi
9:00 pm48 °FClear.6 mph34%30.21 "Hg10 mi
8:00 pm50 °FClear.7 mph32%30.18 "Hg10 mi
7:00 pm54 °FClear.8 mph28%30.18 "Hg10 mi
6:00 pm57 °FClear.12 mph25%30.15 "Hg10 mi
Weather by CustomWeather, © 2019

See weather overview

LIVE TOTAL LUNAR ECLIPSE – Watch the eclipse as it happens